Temp
24 25 28 29 28 29 31 33 35 34 34 34 34 33 31 30 30 25 25 25 24 24 22 21 20 20 20 20 20 21 21 21 22 21 21 21 21 21 21 21 21 21 21 22 21 21 21 21 21
28 29 29 31 27 28 34 35 33 33 34 34 33 32 31 29 30 27 25 24 24 24 23 21 20 20 21 21 20 20 20 20 22 22 21 21 21 21 21 21 21 21 21 21 21 21 21 21 21
27 28 32 33 29 33 32 34 34 34 34 33 32 32 32 29 28 26 25 24 24 23 22 20 20 19 20 20 21 21 20 21 21 22 21 20 21 20 21 21 21 21 21 21 21 21 21 21 21
30 30 32 29 34 35 34 34 34 34 33 33 33 30 31 29 28 27 26 26 25 24 22 20 20 19 19 19 20 20 21 21 21 21 21 21 21 21 21 21 21 21 21 21 21 21 21 21 21
30 29 30 33 33 35 35 35 35 34 34 33 33 30 29 29 29 28 27 26 26 24 21 20 21 20 20 21 21 20 20 21 20 21 21 20 21 21 21 21 21 21 21 22 22 21 22 22 22
31 31 30 31 33 34 34 34 35 34 33 33 32 30 29 29 29 28 27 27 27 25 23 21 22 21 20 20 20 21 21 21 20 21 21 21 21 21 21 21 21 21 22 23 23 23 23 23 23
27 30 26 32 33 33 33 35 34 34 33 33 33 29 30 30 29 29 28 26 24 25 24 22 22 21 22 21 21 22 22 22 21 21 21 21 21 21 21 21 22 22 23 23 24 23 23 23 23
33 30 33 34 33 32 33 33 34 34 32 34 33 30 29 30 29 30 29 28 25 25 24 23 22 20 21 21 22 22 22 21 21 21 22 23 23 23 24 24 22 23 23 24 24 24 24 24 24
34 31 27 33 32 32 33 32 33 33 33 33 34 32 31 29 30 30 29 27 26 25 25 23 24 20 21 22 22 22 21 21 22 23 23 23 26 25 24 24 24 24 24 25 25 25 25 25 25
31 28 29 32 28 33 33 33 33 33 32 32 33 32 30 30 30 30 29 28 26 26 24 25 25 21 20 20 21 22 21 23 24 24 25 26 26 26 26 25 25 25 26 26 26 26 27 26 26
30 27 30 32 32 34 33 33 34 34 31 33 31 31 31 30 31 30 30 28 27 22 26 21 22 21 21 23 21 22 23 23 24 24 25 26 26 26 26 26 26 26 27 25 27 27 28 29 30
29 25 28 31 32 33 32 34 33 33 31 34 33 32 31 31 32 31 30 29 28 26 26 25 26 20 23 24 24 24 25 25 26 25 25 26 27 27 28 29 28 28 29 28 29 28 28 29 30
29 25 23 27 26 30 30 32 32 33 34 33 33 32 32 32 32 31 31 30 29 28 27 25 24 25 25 26 27 27 26 27 27 26 25 27 28 27 28 24 28 29 29 29 29 28 29 29 30
29 27 25 24 27 26 27 30 31 33 33 32 32 32 32 33 32 31 31 29 29 28 27 26 25 25 25 25 25 26 27 26 27 27 25 25 27 27 28 25 29 29 29 29 29 28 29 30 30
30 28 29 26 25 23 24 26 30 32 33 32 32 32 32 32 32 31 30 30 29 28 27 26 26 25 25 25 25 27 27 27 27 26 25 25 26 26 27 28 29 29 28 28 28 28 29 30 31
31 27 26 26 27 22 25 23 25 27 30 32 31 32 32 32 32 30 30 30 29 29 27 26 28 26 25 24 26 27 27 27 27 27 26 25 25 25 27 28 28 28 29 30 30 30 30 31 31
31 29 26 27 28 24 23 22 22 27 29 31 31 32 32 31 32 31 30 30 29 28 27 27 27 27 26 24 26 26 25 27 27 27 27 25 26 25 27 28 27 24 29 30 30 30 30 30 31
30 23 31 30 27 27 24 22 21 26 28 29 31 31 32 31 32 31 30 30 29 27 27 27 27 26 25 25 26 26 26 27 27 27 26 26 26 25 26 27 27 25 26 29 28 28 29 29 29
35 33 30 30 28 28 26 23 22 23 23 25 26 31 31 30 32 31 31 30 29 28 27 26 26 25 25 26 27 26 26 27 27 27 25 25 26 26 26 28 28 28 28 27 28 29 29 30 29
35 33 27 30 30 29 28 25 23 22 22 24 25 26 27 31 32 31 31 30 30 28 27 26 26 24 24 27 27 27 27 27 27 27 26 26 26 26 26 26 28 27 27 27 27 27 29 30 28
35 35 32 30 30 30 30 27 23 23 23 22 24 28 30 31 30 31 31 31 30 29 28 26 26 24 25 26 26 25 26 26 27 26 26 26 26 26 26 25 26 27 27 27 27 26 27 29 29
34 36 34 33 31 29 31 28 28 26 24 24 23 27 26 27 29 32 31 31 30 29 28 27 26 25 25 25 25 25 27 28 28 28 27 26 26 26 26 26 26 26 27 27 27 26 27 28 29
35 34 35 33 34 33 30 30 30 29 27 25 23 28 27 29 32 26 31 31 31 30 28 27 26 25 26 25 24 25 26 26 28 28 26 26 25 26 26 26 26 26 27 26 26 26 26 28 28
35 34 34 35 35 34 32 32 31 30 30 28 25 27 28 26 32 27 26 30 30 30 29 28 26 25 25 25 24 24 26 26 28 28 27 28 27 26 26 26 26 26 25 26 26 26 26 26 26
34 34 33 33 34 33 34 33 32 32 31 28 27 27 29 32 31 33 29 28 30 30 29 29 27 25 25 25 25 25 25 25 26 26 27 28 28 28 25 26 25 26 25 26 25 26 26 27 26
34 35 33 29 27 33 28 32 30 31 32 28 27 26 26 30 29 25 27 29 30 30 30 29 27 26 25 25 25 25 25 26 26 26 27 28 27 28 27 26 26 26 26 26 26 26 27 27 27
34 34 35 32 34 33 34 30 32 32 31 31 30 29 25 29 30 29 31 31 31 30 30 29 27 26 26 26 25 24 25 25 27 27 26 27 27 27 27 27 26 26 26 26 25 26 27 27 26
35 33 32 31 28 28 32 28 28 30 29 31 31 29 26 29 31 29 30 32 30 30 30 29 28 26 26 26 26 25 25 25 25 26 25 26 26 26 26 26 26 26 26 26 25 26 27 26 26
34 29 30 33 31 29 30 28 30 28 28 28 29 28 26 27 31 31 29 29 30 30 30 29 29 27 26 26 26 26 26 26 25 26 26 25 25 25 25 24 25 26 26 26 26 25 25 26 26
36 34 35 34 28 29 30 28 28 29 28 28 30 28 27 24 28 30 29 28 31 31 30 30 29 28 28 27 26 26 26 26 26 26 26 26 25 25 25 25 25 25 26 26 25 25 26 26 27
Height
774 773 769 767 782 767 778 766 747 759 758 752 755 762 776 775 779 812 804 806 810 811 816 818 819 821 821 821 822 822 823 823 824 823 826 828 829 831 831 832 832 832 832 833 834 834 834 834 834
772 771 768 759 792 798 766 749 762 759 755 756 760 765 774 789 784 798 806 809 812 814 817 820 820 822 822 822 823 823 826 826 827 826 828 832 832 834 834 835 834 835 835 836 836 836 836 836 836
773 771 761 752 780 773 774 753 755 757 755 761 768 768 774 789 793 801 808 812 814 817 820 822 823 824 825 826 828 829 829 829 829 830 833 835 835 836 837 837 838 838 838 838 838 838 837 837 838
768 766 756 779 764 754 755 754 754 759 762 761 766 788 785 790 797 802 807 810 814 818 822 823 825 826 827 828 831 832 832 831 832 835 838 838 839 839 839 839 840 841 840 840 841 839 839 840 840
769 768 769 762 765 753 748 749 749 759 762 766 768 788 795 793 797 802 808 812 815 821 825 825 827 828 831 832 833 834 834 834 835 838 840 841 841 841 840 841 842 842 842 842 842 841 841 841 842
767 763 776 779 768 758 758 754 752 760 766 770 777 788 797 797 800 803 808 810 814 819 826 828 829 830 832 835 835 836 838 839 837 842 843 842 843 842 842 843 843 843 843 843 842 843 843 843 842
779 774 795 769 767 768 765 753 759 764 768 772 772 795 797 798 801 803 807 813 818 821 827 831 832 834 834 836 838 838 840 842 842 844 844 845 845 844 844 844 845 844 845 844 844 844 844 844 843
758 770 764 755 772 776 763 764 762 763 774 766 771 796 801 800 802 804 807 812 819 822 828 833 837 838 839 839 840 841 842 843 845 847 846 846 846 845 845 846 846 846 845 845 845 845 845 844 844
754 777 796 766 771 770 762 772 766 766 773 771 771 780 789 800 801 803 809 815 821 822 827 834 838 841 842 841 841 842 843 846 847 847 846 845 846 847 847 847 846 846 845 846 846 846 844 843 843
763 786 785 763 773 762 764 768 771 770 776 781 776 783 796 799 801 803 809 817 821 823 827 830 835 842 845 845 844 844 844 846 848 849 847 846 846 847 848 848 846 846 845 846 845 844 842 841 842
766 792 773 763 759 754 764 767 764 768 783 778 786 791 797 799 801 804 807 815 819 820 826 830 833 835 844 846 848 846 846 850 851 848 849 847 847 847 845 845 845 844 844 845 842 843 842 841 842
781 792 783 774 769 761 771 762 771 770 778 772 782 791 796 798 798 802 807 813 819 826 831 834 836 836 839 844 846 845 847 846 846 850 850 848 848 846 842 842 845 844 845 845 844 846 846 845 842
779 795 795 787 787 778 778 774 775 775 770 777 785 792 796 796 798 802 807 813 819 826 831 836 839 841 843 843 845 845 847 844 848 850 850 847 847 846 842 841 842 843 843 845 846 848 847 846 845
776 785 793 795 793 796 795 786 779 776 776 782 788 791 794 795 800 805 808 815 820 825 831 835 839 843 844 845 847 847 846 848 848 851 853 849 848 845 842 840 842 843 843 846 847 848 847 846 845
774 789 787 796 800 807 805 806 790 778 778 785 787 787 793 797 799 806 810 815 820 824 831 836 839 843 845 848 847 846 847 847 849 852 854 853 851 849 845 841 841 841 844 845 848 849 848 846 844
774 792 809 800 797 813 810 826 806 794 786 786 788 788 792 793 798 807 811 815 820 823 830 835 835 840 844 846 846 845 846 848 850 851 853 854 854 851 847 841 844 849 841 841 845 847 848 847 845
771 793 803 802 792 808 816 827 814 799 792 787 789 790 793 795 799 805 811 815 820 824 830 834 836 839 843 846 846 846 849 850 851 851 852 855 855 852 846 842 856 836 844 836 842 846 848 847 843
788 817 777 786 797 798 814 822 817 807 797 792 788 789 791 796 796 803 809 814 820 826 830 833 837 840 843 846 847 848 849 850 851 852 852 856 856 854 849 843 836 840 838 834 845 849 850 848 846
750 767 783 776 785 795 807 819 814 810 811 805 801 791 790 795 794 800 806 811 817 824 830 833 836 841 843 844 846 847 848 849 851 852 855 856 856 855 852 847 837 839 841 845 848 850 850 847 846
749 762 799 779 779 784 797 811 813 813 815 807 804 798 801 792 792 799 804 810 814 821 828 833 837 841 843 843 844 844 847 848 849 851 855 856 856 857 856 853 849 845 844 848 853 854 850 846 847
753 753 773 782 778 775 779 801 814 809 808 809 800 793 789 788 793 796 800 806 812 819 825 832 836 840 842 842 844 846 849 850 851 852 854 856 857 858 858 857 856 854 851 850 855 856 855 849 848
760 737 754 761 778 796 773 806 791 796 806 808 805 794 793 799 795 793 798 802 809 816 823 829 834 838 841 842 845 848 847 847 847 850 852 855 857 859 859 860 860 858 854 856 857 858 856 854 851
754 748 748 754 761 761 775 789 781 778 794 798 805 789 794 790 783 800 796 801 804 812 819 825 832 837 839 842 846 847 846 847 847 849 851 854 857 858 859 859 860 860 857 858 860 860 858 856 854
742 750 751 747 747 765 763 771 779 774 771 777 790 787 787 793 782 795 801 799 802 809 815 821 829 835 838 842 845 846 846 845 846 848 851 852 853 854 857 859 860 860 860 860 860 860 861 859 858
751 757 772 772 766 773 751 762 761 755 753 769 779 783 782 774 778 781 795 794 800 806 813 816 826 832 837 839 842 845 847 846 847 848 849 849 849 850 852 856 859 859 860 860 860 860 860 859 859
753 747 767 810 818 766 769 763 766 750 745 763 770 779 786 779 779 787 784 793 798 803 809 815 822 829 834 837 840 844 846 847 848 850 849 847 848 848 850 854 857 858 859 860 860 859 858 857 857
747 757 735 773 749 764 747 765 746 745 752 753 761 766 780 780 773 776 779 785 791 799 806 812 819 827 831 834 838 842 844 845 844 846 847 845 847 848 850 854 856 856 857 859 860 859 858 858 858
740 745 770 768 801 806 760 782 781 766 768 755 754 766 776 775 769 776 775 780 789 798 802 810 816 824 828 832 835 838 841 844 844 844 846 847 849 849 851 852 853 854 856 857 858 856 854 856 857
749 772 766 745 766 789 780 792 760 770 768 768 760 766 775 780 769 771 777 785 785 793 797 806 813 819 825 828 831 834 836 839 842 843 845 847 848 850 851 853 852 851 852 854 855 855 854 855 855
726 739 735 749 785 777 771 781 766 765 765 766 758 761 766 780 775 774 776 784 782 786 796 801 809 814 819 823 828 831 834 836 837 839 841 844 846 848 849 850 851 851 851 851 852 854 852 851 852
Wind_Speed
7 6 8 5 5 6 6 10 11 9 13 15 9 14 16 15 14 10 17 19 19 17 15 12 13 15 15 16 17 18 17 17 17 19 16 15 16 15 15 15 17 17 17 17 16 15 14 14 13
10 5 8 5 3 6 8 9 14 11 15 12 14 5 19 21 21 18 17 19 19 16 15 13 16 14 16 16 18 19 17 16 17 18 14 14 15 14 15 16 17 17 17 16 14 13 12 12 12
4 6 10 5 1 11 7 13 14 11 9 9 8 15 11 12 16 11 21 20 21 20 18 16 17 18 19 18 19 18 17 16 16 16 13 14 14 14 14 15 14 15 14 13 12 12 12 11 12
5 5 6 0 7 13 13 13 12 11 10 9 15 13 15 18 22 22 22 24 22 23 18 17 18 19 19 20 16 16 17 16 16 15 13 13 14 14 13 13 12 12 13 12 11 12 11 13 10
6 4 6 4 11 13 13 10 8 10 10 9 15 19 17 21 22 24 22 24 24 23 20 16 21 20 16 18 16 17 17 19 18 12 11 13 13 12 11 11 11 11 11 12 12 13 14 13 12
3 4 2 2 12 12 10 5 8 12 10 10 19 19 17 20 21 22 25 24 23 24 19 18 19 22 19 19 16 17 18 19 12 9 10 12 12 11 10 10 10 10 10 11 12 12 12 12 11
4 7 4 11 12 12 9 3 10 10 9 15 14 19 14 18 20 20 23 27 23 17 20 18 20 18 19 17 16 16 15 14 11 11 11 12 11 10 9 10 9 9 9 9 9 8 9 9 9
8 1 11 9 7 14 11 11 6 8 13 8 20 12 18 19 19 20 19 24 24 19 20 17 13 11 15 16 16 16 15 14 11 11 11 14 15 12 10 9 8 8 7 7 6 6 5 7 8
5 4 4 7 11 13 11 10 8 11 12 8 3 19 24 22 20 19 19 20 16 16 20 19 16 11 15 16 18 15 11 12 13 13 9 8 9 9 7 6 8 7 6 5 5 4 4 4 10
2 2 4 7 12 15 11 13 12 11 12 9 16 24 25 21 19 18 21 18 18 17 20 24 22 15 14 13 14 13 11 8 9 9 7 8 8 9 10 8 9 7 6 5 5 7 4 3 9
1 3 5 10 12 9 11 11 7 7 12 15 17 22 22 21 19 16 16 21 17 16 10 22 27 28 25 14 14 15 12 12 11 5 5 5 9 9 11 7 6 6 3 8 3 3 1 8 10
7 8 4 9 2 3 6 8 8 11 10 16 18 21 20 18 17 19 16 19 20 18 15 13 13 27 19 11 13 14 13 14 13 9 7 7 11 2 6 11 9 4 8 5 10 9 9 9 6
12 8 5 6 13 12 7 5 6 10 16 17 18 18 18 16 15 15 16 16 14 14 14 15 17 9 9 8 10 11 11 9 10 9 5 3 10 4 6 5 8 4 9 8 7 6 7 8 7
12 11 9 3 4 5 9 3 7 12 15 16 17 18 16 16 16 15 15 17 15 15 14 13 16 13 11 10 7 8 7 9 9 8 6 1 5 5 5 4 8 6 6 6 6 3 4 6 4
15 11 11 10 3 5 11 1 3 7 14 15 14 15 15 14 17 15 15 16 15 14 14 14 13 12 11 11 12 9 10 11 8 8 6 4 6 1 1 3 5 5 6 6 5 3 2 3 2
14 10 8 3 11 4 6 5 5 9 7 14 14 13 12 14 15 16 15 15 15 13 14 14 13 14 11 9 8 10 6 8 6 6 9 5 5 1 2 6 6 3 5 8 5 4 2 2 1
7 4 9 6 5 6 3 2 5 10 9 12 14 13 15 12 15 16 16 15 16 15 15 14 12 14 10 10 6 6 6 7 6 5 8 5 4 1 1 5 7 8 7 8 9 5 2 2 5
7 3 11 12 10 7 8 5 4 11 10 9 11 14 12 11 15 17 17 18 17 16 16 14 13 13 10 10 8 10 5 5 7 6 8 3 4 2 5 1 8 8 15 14 10 8 4 4 6
3 9 11 12 11 11 9 7 6 5 5 11 6 10 12 10 15 19 18 19 20 17 16 16 14 13 11 13 13 12 10 7 8 7 6 5 4 3 4 2 8 9 15 11 7 2 3 5 9
11 8 11 7 11 8 12 12 10 8 7 12 14 16 18 17 12 17 18 17 18 18 18 16 15 14 13 13 12 8 8 6 7 8 7 4 5 3 2 5 4 8 8 9 7 8 10 3 8
12 7 2 5 9 6 5 9 14 15 9 10 16 14 9 14 13 15 18 20 17 18 19 18 15 14 13 7 7 4 6 1 5 6 8 5 4 3 3 3 7 4 5 11 7 6 6 11 3
16 10 3 5 6 4 9 1 13 18 16 14 13 18 6 15 19 16 17 18 19 18 18 18 16 15 13 13 10 12 10 10 10 8 8 6 5 4 4 2 1 5 7 5 6 7 5 7 6
6 8 9 6 11 11 13 4 5 21 17 19 17 23 13 10 15 18 21 19 19 19 18 18 17 16 14 15 11 13 11 6 10 9 9 2 6 4 5 4 2 1 5 7 4 5 6 3 7
14 7 11 14 13 12 8 8 7 10 15 17 20 21 19 21 17 15 17 15 22 20 19 19 18 17 15 14 12 10 6 8 8 9 9 9 11 9 8 5 4 2 2 0 2 2 2 6 6
15 14 12 13 10 4 8 7 6 9 6 18 20 18 20 17 13 18 22 11 21 20 20 20 18 17 18 16 15 12 9 7 5 8 10 9 5 9 14 7 4 4 3 2 2 2 2 0 3
17 19 10 5 3 6 7 6 6 5 10 20 21 18 14 21 14 17 10 22 19 21 21 18 20 18 17 17 17 14 12 12 11 12 12 14 15 3 12 5 6 6 5 5 3 6 5 5 2
13 15 11 7 15 10 9 7 13 11 7 9 19 23 18 19 18 8 27 29 22 21 20 18 20 18 17 17 17 15 13 13 11 9 13 10 6 8 5 5 7 7 7 7 6 7 5 4 5
16 6 5 12 4 5 4 9 9 8 7 5 13 20 17 18 18 18 6 17 22 20 20 19 19 19 18 17 16 16 15 14 12 10 6 7 4 8 4 7 10 9 9 8 8 8 10 5 6
10 5 13 2 4 10 5 3 13 10 6 7 9 17 17 22 21 10 7 16 25 25 21 20 19 18 18 18 17 16 16 15 13 14 13 13 10 8 8 8 11 10 11 12 9 10 8 4 5
15 13 16 10 5 4 17 5 9 12 6 6 2 8 19 6 7 6 11 10 14 22 18 20 19 19 18 18 17 17 16 14 16 15 14 13 12 11 10 10 11 11 11 9 6 11 13 10 8
Wind_Direction
213 221 256 269 256 213 57 114 91 85 74 62 58 66 66 34 34 89 112 108 115 116 115 101 107 108 107 117 115 112 110 109 100 95 94 99 101 103 102 102 98 98 101 98 92 92 93 94 98
254 258 245 271 337 16 88 103 106 81 81 100 67 36 73 75 84 107 109 101 107 108 104 104 103 117 110 119 118 112 108 109 107 97 97 98 100 100 101 102 102 102 99 95 95 91 88 102 102
277 272 268 254 162 82 84 83 90 94 126 108 96 50 59 86 99 108 122 124 114 102 104 101 105 117 118 112 114 114 102 99 98 96 98 95 93 96 101 100 101 102 100 96 92 87 86 100 99
229 217 246 188 92 71 90 86 100 131 63 64 117 91 76 79 115 120 126 132 110 112 108 109 107 107 111 121 110 101 102 102 94 100 102 98 98 99 102 104 110 109 103 95 89 84 94 95 116
219 252 268 177 105 70 69 80 136 104 86 107 99 97 95 100 114 119 125 118 117 110 107 109 109 109 109 113 111 107 100 107 92 86 95 97 100 106 112 116 115 109 100 95 92 88 95 90 94
255 278 175 274 108 94 83 79 55 78 73 104 110 104 107 119 123 126 128 135 121 122 116 101 113 109 103 100 109 103 105 102 92 98 104 101 103 110 117 122 117 110 104 101 94 89 88 86 83
131 251 339 243 116 114 96 81 63 110 123 124 122 122 130 129 126 130 127 116 120 119 122 122 105 97 107 100 103 104 103 102 110 103 107 111 113 119 123 120 118 117 111 104 93 89 85 83 77
246 316 248 119 137 109 107 92 69 96 78 106 115 132 146 129 143 132 129 123 120 127 128 133 132 113 101 106 98 95 101 109 115 123 123 116 100 95 99 115 125 119 116 105 94 82 85 83 70
206 247 359 108 134 123 115 105 80 114 132 132 92 144 126 153 145 140 119 111 119 135 136 135 131 130 121 107 104 96 94 112 120 113 130 155 116 110 115 154 128 129 121 115 88 72 84 125 93
131 258 31 30 154 125 132 103 133 134 125 121 126 116 138 151 154 146 139 136 143 142 144 141 134 130 140 139 125 115 142 131 134 119 110 103 83 100 120 123 105 108 110 98 81 98 85 189 180
303 79 344 41 12 147 134 130 144 160 125 146 135 141 150 156 156 151 147 142 138 130 94 132 136 138 153 137 162 154 144 141 130 160 110 113 153 159 152 138 151 151 139 214 151 229 88 71 102
108 69 13 52 27 38 46 129 96 89 172 130 140 149 153 163 166 154 150 135 133 132 121 121 128 149 149 145 180 179 146 155 143 116 124 162 122 66 73 110 126 115 88 95 75 83 89 101 62
108 125 86 356 23 38 343 63 79 112 113 123 139 154 161 169 166 154 150 139 144 139 133 127 129 133 133 187 149 128 135 147 119 124 87 42 117 134 143 117 90 101 113 103 95 98 99 102 83
127 152 135 311 56 36 3 37 83 123 127 133 147 161 168 161 167 158 158 151 156 151 145 138 140 138 154 124 134 143 139 122 139 115 103 52 122 74 193 129 126 91 70 96 104 95 102 59 88
136 140 144 166 114 32 339 342 140 127 143 151 157 164 168 169 164 161 164 160 165 166 150 151 144 144 145 147 160 157 158 148 141 125 108 97 77 27 84 63 92 86 110 144 126 157 112 91 83
163 136 158 148 151 46 280 175 270 327 274 167 158 163 162 161 156 164 169 169 166 169 157 161 159 150 158 133 152 150 133 139 141 144 131 102 91 176 233 200 94 111 125 112 97 135 142 359 339
189 211 155 148 123 129 160 101 285 299 279 177 161 167 156 163 162 166 167 170 163 155 163 164 157 157 157 147 161 97 141 144 159 144 130 116 114 29 2 57 110 159 136 88 111 93 339 129 304
140 55 175 142 167 157 162 147 266 296 260 267 182 171 164 169 170 165 166 160 164 152 161 165 168 149 166 153 178 154 165 158 150 150 97 123 129 89 294 177 281 38 30 89 61 22 36 15 339
227 158 139 111 152 164 164 178 199 242 277 264 291 217 185 172 161 162 171 166 163 159 161 162 167 163 174 170 179 174 193 148 154 154 141 127 131 89 314 170 322 340 79 56 54 355 100 25 343
267 186 80 126 169 205 165 177 200 223 207 221 239 265 188 167 177 168 171 175 172 166 165 170 171 164 192 188 198 155 160 187 154 142 153 127 140 118 25 8 359 340 46 68 36 6 334 106 11
246 257 111 173 162 231 210 167 183 206 206 231 248 253 207 181 202 174 178 171 178 175 176 175 180 176 202 209 165 130 161 155 171 144 169 148 151 154 86 41 32 342 355 76 40 11 9 0 45
260 183 252 126 230 213 191 269 182 183 191 203 228 242 138 228 205 175 180 180 178 170 181 179 185 183 193 188 183 184 199 186 177 184 143 142 166 183 181 143 74 345 10 40 58 31 14 9 29
268 293 259 177 251 215 183 247 167 167 198 205 210 225 215 227 183 232 187 182 179 167 175 178 185 187 189 195 191 193 222 268 172 158 136 302 155 197 210 204 185 323 13 61 32 30 13 3 360
258 235 243 251 244 257 133 238 188 189 223 200 187 210 213 197 198 186 210 177 169 178 176 172 182 189 192 194 198 223 254 265 203 197 161 203 202 188 197 209 213 243 316 25 330 344 24 18 360
235 240 239 222 208 249 242 207 121 174 148 174 173 200 215 231 217 190 165 156 171 179 185 174 176 190 195 198 201 213 229 225 257 176 226 242 199 212 164 176 222 239 221 279 291 290 308 312 349
225 240 268 309 297 309 93 239 97 116 148 168 173 195 200 226 169 249 124 185 175 182 181 183 171 189 195 198 204 205 206 209 223 216 235 249 219 31 140 170 234 228 247 253 269 262 257 108 325
214 231 249 293 273 229 159 49 123 110 96 162 201 174 185 219 249 147 175 205 183 183 182 193 174 192 195 195 193 194 203 232 245 220 228 221 276 217 190 209 230 243 240 242 268 260 257 292 270
266 331 247 185 251 225 226 174 94 66 38 321 183 163 179 207 235 174 173 180 176 204 185 196 186 192 198 198 197 201 207 218 233 239 235 262 275 236 281 221 228 236 242 245 244 255 229 202 267
214 152 251 15 82 289 152 45 72 51 21 330 127 158 164 208 223 158 227 192 173 193 182 187 193 192 199 203 204 209 209 212 213 223 222 229 246 259 257 260 269 252 240 239 240 259 285 279 262
270 273 244 244 225 336 288 108 46 35 28 326 28 181 158 195 246 255 343 277 198 181 187 184 192 197 200 203 204 208 217 222 220 214 223 215 229 240 244 242 245 244 247 258 235 250 264 238 232